Regional Weather Roundup
Issued by NWS

Home | Current Version | Previous Version | Text Only | Print | Product List | Glossary Off
Versions: 1 2 3 4 5 6 7 8 9 10 11 12 13 14 15 16 17 18 19 20 21 22 23 24 25 26 27 28 29 30 31 32 33 34 35 36 37 38 39 40 41 42 43 44 45 46 47 48 49 50

124
ASUS45 KTFX 290910
RWRMT
MONTANA REGIONAL WEATHER ROUNDUP
NATIONAL WEATHER SERVICE GREAT FALLS MT
300 AM MDT THU SEP 29 2016

NOTE: "FAIR" INDICATES FEW OR NO CLOUDS BELOW 12000 FEET WITH NO
SIGNIFICANT WEATHER AND/OR OBSTRUCTIONS TO VISIBILITY.

MTZ001>007-043-291000-
WEST OF THE DIVIDE

CITY           SKY/WX    TMP DP  RH WIND       PRES   REMARKS
KALISPELL      CLEAR     52  44  74 NW5       30.02R
MISSOULA       CLEAR     55  46  71 SE6       30.04S
BUTTE          CLEAR     45  39  79 S3        30.20S
MULLAN PASS    CLEAR     59  39  47 SE5       30.13S
DEER LODGE       N/A     39  36  87 CALM      30.16F
EUREKA           N/A     48  43  81 CALM      30.05S
HAMILTON         N/A     57  39  51 S6        30.05S
LIBBY            N/A     48  46  93 CALM      30.02R
RONAN            N/A     45  41  86 CALM      30.06S
$$

MTZ008-052>055-291000-
SOUTHWEST MONTANA

CITY           SKY/WX    TMP DP  RH WIND       PRES   REMARKS
BOZEMAN        CLEAR     47  43  86 SW5       30.17F
DILLON         CLEAR     47  37  68 S10       30.19S
W YELLOWSTONE    N/A     32  32 100 S3        30.33R
ENNIS          CLEAR     43  37  81 CALM      30.25R
THREE FORKS      N/A     42  25  51 CALM      30.14R
TWIN BRIDGES     N/A     46  36  68 E3        30.15S
$$

MTZ009-010-012-014-046-048-049-054-291000-
EAST SLOPES AND CENTRAL MONTANA

CITY           SKY/WX    TMP DP  RH WIND       PRES   REMARKS
CUT BANK       CLEAR     38  37  97 N6        30.11F
GREAT FALLS    CLEAR     44  41  89 S6        30.12F
HELENA         CLEAR     51  43  74 CALM      30.14S
CHOTEAU          N/A     48  45  87 SW6       30.13F
$$

MTZ011-013-016-021-045-047-050-051-291000-
NORTH CENTRAL MONTANA

CITY           SKY/WX    TMP DP  RH WIND       PRES   REMARKS
HAVRE          CLEAR     47  46  97 CALM      30.09S
LEWISTOWN      CLEAR     47  42  83 CALM      30.13F
N BAR RANCH      N/A     59  45  58 CALM      30.17F
CHINOOK          N/A     48  48 100 CALM      30.09F
$$

MTZ017>020-022>027-061-062-291000-
NORTHEAST MONTANA

CITY           SKY/WX    TMP DP  RH WIND       PRES   REMARKS
GLASGOW        CLEAR     56  50  80 E14       30.13F
JORDAN           N/A     59  50  72 SE7       30.12F
SIDNEY         CLEAR     53  38  56 SE5       30.26R
WOLF POINT     CLEAR     58  46  64 NE7       30.19R
PLENTYWOOD       N/A     55  37  50 SE9       30.23F
POPLAR           N/A     57  43  58 E8        30.20S
$$

MTZ028>42-056>058-291000-
SOUTHCENTRAL AND SOUTHEAST MONTANA

CITY           SKY/WX    TMP DP  RH WIND       PRES   REMARKS
BAKER          CLEAR     51  35  54 SE17      30.26F
BILLINGS       CLEAR     54  50  86 SW8       30.14F
LIVINGSTON     CLEAR     44  42  93 NW3       30.19F
MILES CITY     CLEAR     60  43  53 SE15      30.18S
BIG TIMBER     CLEAR     50  46  87 W8        30.21F
FORSYTH          N/A     57  50  77 N3        30.13S
LAUREL           N/A     51  46  83 CALM      30.12F
ROUNDUP          N/A     50  45  83 S6        30.05S
$$

REGIONAL REPORTS...DAKOTAS

CITY           SKY/WX    TMP DP  RH WIND       PRES   REMARKS
WILLISTON      CLEAR     54  39  57 S7        30.27F
MINOT          CLEAR     45  43  93 SE7       30.34S
DICKINSON      CLEAR     46  42  86 S15       30.30S
BEACH            N/A     50  36  57 E13       30.30S
CROSBY           N/A     52  45  76 SE10      30.29S
WATFORD CITY     N/A     48  41  76 E7        30.29S HAZE
BISMARCK       CLEAR     44  42  93 E5        30.38S
GRAND FORKS    PTCLDY    39  38  96 CALM      30.44R FOG
FARGO          FOG       41  39  93 CALM      30.44R VSB 1
BUFFALO SD       N/A     50  36  58 SE13      30.24F
RAPID CITY     CLEAR     43  35  73 SE6       30.32F
$$

REGIONAL REPORTS...WYOMING/IDAHO/WASHINGTON

CITY           SKY/WX    TMP DP  RH WIND       PRES   REMARKS
GILLETTE       CLEAR     56  43  61 S17       30.26F
SHERIDAN       CLEAR     50  39  66 CALM      30.17F
BUFFALO WY     CLEAR     55  38  52 SE10      30.25F
CODY           CLEAR     57  39  51 S12       30.22F
YELLOWSTONE LA   N/A     34  33  96 NW3       30.40F
IDAHO FALLS    LGT RAIN  56  47  71 N10       30.19F
SALMON         CLEAR     46  37  71 SE3       30.13R
BOISE          PTCLDY    72  37  28 SE10      29.92R
SPOKANE        PTCLDY    57  39  51 CALM      29.96S
$$

REGIONAL REPORTS...ALBERTA

CITY           SKY/WX    TMP DP  RH WIND       PRES   REMARKS
EDMONTON       PTCLDY    36  32  87 SE2       30.20S
LETHBRIDGE     CLEAR     41  37  87 W6        30.12S
MEDICINE HAT   CLEAR     45  39  81 N5        30.12S
WATERTON GATE    N/A     34  32  93 CALM        N/A
MILK RIVER       N/A     36  36 100 NW5         N/A
ONEFOUR          N/A     48  45  87 NE10        N/A
$$

REGIONAL REPORTS...SASKATCHEWAN

CITY           SKY/WX    TMP DP  RH WIND       PRES   REMARKS
SWIFT CURRENT  CLEAR     45  43  93 E9        30.15F
REGINA         MOCLDY    54  41  62 SE17      30.21F
SASKATOON      MOCLDY    46  46 100 NE7       30.24S
CYPRESS HILLS    N/A     48  43  81 E3          N/A
VAL MARIE        N/A     48  46  93 NE3         N/A
ROCKGLEN         N/A     52  46  82 S14         N/A
ASSINIBOIA       N/A     46  37  71 E2          N/A
$$




USA.gov is the U.S. government's official web portal to all federal, state and local government web resources and services.